sat.trackr.live / text

‹ back to catalog

EXPRESS-AM7

NORAD 40505 · 2015-012A

PAYLOAD ACTIVE UNKNOWN

§ Identity

Operator
Country
CIS
Launch date
2015-03-18
Launch site
TYMSC
Launch vehicle
Mass (kg)
RCS (m²)
12.91

Purposes: comms

External: N2YO · Heavens-Above · Gunter

§ Orbital elements

Epoch: 2026-09-10T02:13:09.636960Z

Period
1,436.10 min
Inclination
0.0207°
Eccentricity
0.0003115
Mean motion
1.00271550 rev/d
Perigee alt
35,773.5 km
Apogee alt
35,799.8 km
Semi-major
42,164.8 km
B*
0.0000e+0
RAAN
135.2316°
Arg perigee
40.6251°
Mean anomaly
246.5480°
Rev number
4,185

§ Raw data

EXPRESS-AM71 40505U 15012A   26253.09247265  .00000130  00000+0  00000+0 0  99982 40505   0.0207 135.2316 0003115  40.6251 246.5480  1.00271550 41852

JSON: /api/v1/satellites/40505 · /tle

For live sub-satellite position, see the globe view (requires WebGL).

§ Visibility from observer

Set your observer location to see the next 7 days of passes ≥ 10°. The values pass through the URL so the page stays shareable.

No JS? Fill the form by hand. The geolocation button needs JavaScript.